Change the Weather History Date:

Friday, October 11, 2013

  Actual Average Record
Temperature  
Mean Temperature 62 °F -  
Max Temperature 66 °F 47 °F 66 °F (2011)
Min Temperature 57 °F 37 °F 28 °F (2006)
Degree Days  
Heating Degree Days 4    
Growing Degree Days 12 (Base 50)    
Moisture  
Dew Point 52 °F    
Average Humidity 71    
Maximum Humidity 94    
Minimum Humidity 59    
Precipitation  
Precipitation 0.10 in - - ()
Sea Level Pressure  
Sea Level Pressure 29.65 in    
Wind  
Wind Speed 13 mph (SE)    
Max Wind Speed 28 mph    
Max Gust Speed 36 mph    
Visibility 10 miles    
Events Rain    
Averages and records for this station are not official NWS values.
T = Trace of Precipitation, MM = Missing Value Source: NWS Daily Summary

Daily Weather History Graph

Daily Weather History Graph

Search for Another Location

Airport or City:

Trip Planner

Search our weather history database for the weather conditions in past years. The results will help you decide how hot, cold, wet, or windy it might be!

Date:

Astronomy

Oct. 11, 2013 Rise Set
Actual Time 7:34 AM CDT 6:36 PM CDT
Civil Twilight 7:02 AM CDT 7:08 PM CDT
Nautical Twilight 6:26 AM CDT 7:45 PM CDT
Astronomical Twilight 5:48 AM CDT 8:22 PM CDT
Moon 2:34 PM CDT (10/11) No Moon Set
Length of Visible Light 12h 05m
Length of Day
11h 01m
Waxing Crescent, 47% of the Moon is Illuminated
Oct 11
Waxing Crescent
Oct 11
First Quarter
Oct 18
Full
Oct 26
Last Quarter
Nov 3
New

Hourly Weather History & Observations

Time (CDT) Temp. Dew Point Humidity Pressure Visibility Wind Dir Wind Speed Gust Speed Precip Events Conditions
12:13 AM 62.6 °F 51.8 °F 68% 29.77 in 10.0 mi SE 11.5 mph 16.1 mph N/A   Clear
12:33 AM 62.6 °F 51.8 °F 68% 29.76 in 10.0 mi SSE 15.0 mph - N/A   Clear
12:53 AM 60.8 °F 51.8 °F 72% 29.76 in 10.0 mi SE 15.0 mph - N/A   Clear
1:13 AM 60.8 °F 51.8 °F 72% 29.76 in 10.0 mi SE 12.7 mph 19.6 mph N/A   Clear
1:33 AM 60.8 °F 51.8 °F 72% 29.76 in 10.0 mi SE 13.8 mph 19.6 mph N/A   Clear
1:53 AM 60.8 °F 51.8 °F 72% 29.76 in 10.0 mi SSE 17.3 mph 21.9 mph N/A   Clear
2:13 AM 60.8 °F 51.8 °F 72% 29.77 in 10.0 mi SSE 18.4 mph - N/A   Clear
2:33 AM 60.8 °F 51.8 °F 72% 29.77 in 10.0 mi SSE 18.4 mph 24.2 mph N/A   Clear
2:53 AM 60.8 °F 51.8 °F 72% 29.77 in 10.0 mi SSE 18.4 mph - N/A   Clear
3:13 AM 60.8 °F 51.8 °F 72% 29.77 in 10.0 mi SSE 18.4 mph - N/A   Scattered Clouds
3:34 AM 59.0 °F 51.8 °F 77% 29.77 in 10.0 mi SSE 15.0 mph - N/A   Clear
3:53 AM 59.0 °F 51.8 °F 77% 29.77 in 10.0 mi SSE 11.5 mph - N/A   Clear
4:13 AM 60.8 °F 50.0 °F 68% 29.77 in 10.0 mi SE 6.9 mph - N/A   Scattered Clouds
4:34 AM 60.8 °F 50.0 °F 68% 29.78 in 10.0 mi ESE 4.6 mph - N/A   Clear
4:53 AM 60.8 °F 50.0 °F 68% 29.77 in 10.0 mi SE 10.4 mph - N/A   Clear
5:13 AM 60.8 °F 50.0 °F 68% 29.77 in 10.0 mi SSE 13.8 mph 17.3 mph N/A   Clear
5:34 AM 60.8 °F 50.0 °F 68% 29.77 in 10.0 mi SE 10.4 mph - N/A   Scattered Clouds
5:53 AM 59.0 °F 50.0 °F 72% 29.77 in 10.0 mi SE 10.4 mph - N/A   Clear
6:13 AM 59.0 °F 50.0 °F 72% 29.77 in 10.0 mi SE 8.1 mph - N/A   Light Drizzle
6:34 AM 59.0 °F 50.0 °F 72% 29.77 in 10.0 mi SSE 11.5 mph - N/A   Overcast
6:53 AM 59.0 °F 50.0 °F 72% 29.77 in 10.0 mi SE 10.4 mph - N/A   Scattered Clouds
7:13 AM 59.0 °F 50.0 °F 72% 29.76 in 10.0 mi SE 6.9 mph - N/A   Clear
7:34 AM 59.0 °F 50.0 °F 72% 29.76 in 10.0 mi SE 6.9 mph - N/A   Clear
7:53 AM 59.0 °F 50.0 °F 72% 29.75 in 10.0 mi ESE 8.1 mph - N/A   Clear
8:13 AM 59.0 °F 50.0 °F 72% 29.75 in 10.0 mi ESE 9.2 mph - N/A   Clear
8:34 AM 57.2 °F 50.0 °F 77% 29.75 in 10.0 mi ESE 9.2 mph - N/A   Clear
8:53 AM 57.2 °F 50.0 °F 77% 29.74 in 10.0 mi SE 10.4 mph - N/A   Clear
9:13 AM 57.2 °F 50.0 °F 77% 29.73 in 10.0 mi SE 8.1 mph - N/A   Clear
9:34 AM 57.2 °F 50.0 °F 77% 29.73 in 10.0 mi SE 11.5 mph 16.1 mph N/A   Clear
9:53 AM 59.0 °F 50.0 °F 72% 29.73 in 10.0 mi ESE 9.2 mph 17.3 mph N/A   Clear
10:13 AM 59.0 °F 50.0 °F 72% 29.72 in 10.0 mi ESE 9.2 mph 16.1 mph N/A   Clear
10:34 AM 60.8 °F 50.0 °F 68% 29.71 in 10.0 mi ESE 9.2 mph 16.1 mph N/A   Clear
10:53 AM 60.8 °F 51.8 °F 72% 29.70 in 10.0 mi SE 10.4 mph 17.3 mph N/A   Clear
11:13 AM 60.8 °F 51.8 °F 72% 29.68 in 10.0 mi ESE 11.5 mph 17.3 mph N/A   Clear
11:34 AM 60.8 °F 51.8 °F 72% 29.68 in 10.0 mi ESE 10.4 mph 18.4 mph N/A   Clear
11:53 AM 62.6 °F 51.8 °F 68% 29.66 in 10.0 mi ESE 12.7 mph 24.2 mph N/A   Clear
12:13 PM 62.6 °F 51.8 °F 68% 29.66 in 10.0 mi ESE 10.4 mph 18.4 mph N/A   Scattered Clouds
12:33 PM 62.6 °F 51.8 °F 68% 29.66 in 10.0 mi ESE 10.4 mph - N/A   Clear
12:53 PM 62.6 °F 51.8 °F 68% 29.64 in 10.0 mi ESE 8.1 mph - N/A   Clear
1:14 PM 62.6 °F 51.8 °F 68% 29.62 in 10.0 mi ESE 8.1 mph - N/A   Clear
1:33 PM 64.4 °F 51.8 °F 64% 29.61 in 10.0 mi ESE 9.2 mph 16.1 mph N/A   Clear
1:53 PM 64.4 °F 51.8 °F 64% 29.61 in 10.0 mi SE 10.4 mph - N/A   Clear
2:14 PM 62.6 °F 51.8 °F 68% 29.60 in 10.0 mi SE 10.4 mph - N/A   Clear
2:33 PM 64.4 °F 50.0 °F 59% 29.60 in 10.0 mi SSE 13.8 mph - N/A   Clear
2:53 PM 62.6 °F 51.8 °F 68% 29.61 in 10.0 mi SSE 10.4 mph - N/A   Clear
3:14 PM 64.4 °F 51.8 °F 64% 29.59 in 10.0 mi SE 9.2 mph - N/A   Clear
3:33 PM 64.4 °F 51.8 °F 64% 29.60 in 10.0 mi SSE 12.7 mph - N/A   Clear
3:53 PM 64.4 °F 51.8 °F 64% 29.60 in 10.0 mi SSE 11.5 mph - N/A   Clear
4:14 PM 64.4 °F 51.8 °F 64% 29.61 in 10.0 mi SSE 11.5 mph - N/A   Clear
4:33 PM 62.6 °F 51.8 °F 68% 29.61 in 10.0 mi SSE 11.5 mph - N/A   Clear
4:53 PM 64.4 °F 51.8 °F 64% 29.59 in 10.0 mi SE 11.5 mph - N/A   Clear
5:14 PM 64.4 °F 51.8 °F 64% 29.59 in 10.0 mi SE 11.5 mph - N/A   Scattered Clouds
5:33 PM 64.4 °F 51.8 °F 64% 29.58 in 10.0 mi SE 8.1 mph - N/A   Mostly Cloudy
5:53 PM 66.2 °F 51.8 °F 60% 29.57 in 10.0 mi SE 9.2 mph - N/A   Mostly Cloudy
6:14 PM 64.4 °F 51.8 °F 64% 29.55 in 10.0 mi ESE 10.4 mph 19.6 mph N/A Rain Light Rain
6:33 PM 64.4 °F 51.8 °F 64% 29.55 in 10.0 mi SE 11.5 mph 26.5 mph N/A   Mostly Cloudy
6:53 PM 62.6 °F 51.8 °F 68% 29.55 in 10.0 mi SE 10.4 mph 19.6 mph N/A   Overcast
6:59 PM 62.6 °F 51.8 °F 68% 29.54 in 10.0 mi SE 12.7 mph 19.6 mph N/A   Overcast
7:33 PM 62.6 °F 51.8 °F 68% 29.53 in 10.0 mi SE 16.1 mph 26.5 mph N/A   Overcast
7:53 PM 62.6 °F 53.6 °F 72% 29.52 in 10.0 mi SE 15.0 mph 26.5 mph N/A   Mostly Cloudy
8:14 PM 62.6 °F 53.6 °F 72% 29.51 in 10.0 mi SE 15.0 mph 20.7 mph N/A Rain Light Rain
8:33 PM 62.6 °F 53.6 °F 72% 29.50 in 10.0 mi ESE 15.0 mph 24.2 mph N/A   Mostly Cloudy
8:53 PM 60.8 °F 53.6 °F 77% 29.49 in 10.0 mi ESE 13.8 mph 23.0 mph N/A   Mostly Cloudy
9:14 PM 60.8 °F 53.6 °F 77% 29.46 in 10.0 mi ESE 15.0 mph 24.2 mph N/A   Mostly Cloudy
9:33 PM 60.8 °F 53.6 °F 77% 29.44 in 10.0 mi ESE 16.1 mph 32.2 mph N/A   Mostly Cloudy
9:53 PM 62.6 °F 53.6 °F 72% 29.44 in 10.0 mi SE 16.1 mph 28.8 mph N/A   Overcast
10:14 PM 62.6 °F 53.6 °F 72% 29.42 in 10.0 mi ESE 16.1 mph 29.9 mph N/A   Overcast
10:33 PM 60.8 °F 53.6 °F 77% 29.42 in 10.0 mi SE 20.7 mph 29.9 mph N/A Rain Light Rain
10:53 PM 59.0 °F 55.4 °F 88% 29.41 in 10.0 mi SE 25.3 mph 31.1 mph 0.05 in Rain Light Rain
11:14 PM 59.0 °F 55.4 °F 88% 29.40 in 10.0 mi SSE 27.6 mph 35.7 mph 0.03 in Rain Light Rain
11:33 PM 57.2 °F 55.4 °F 94% 29.40 in 10.0 mi SE 15.0 mph 26.5 mph 0.05 in Rain Light Rain
11:53 PM 57.2 °F 55.4 °F 94% 29.39 in 10.0 mi SE 13.8 mph 20.7 mph 0.05 in   Mostly Cloudy